Погода в Дедовщине

Украина / Киевская область     50°09′06″N   29°45′50″E
темп.,
°C
ветер,
м/с
пор.,
м/с
влажн.,
%
обл.,
%
осадки,
мм/ч
давл.,
гПа
погр.,
м
14 июня, пн
пн1400:00+11зсз339270 0.0 101054
03:00+12ссз3690100 0.0 1010152
06:00+12с3796100 0.6 1011241
09:00+14ссв3690100 0.8 1012385
12:00+19св467299 0.0 1013991
15:00+22всв456787 0.6 10131205
18:00+21всв34755 2.3 1013554
21:00+17ссв33893 3.4 101429
15 июня, вт
вт1500:00+15с33935 0.0 101539
03:00+14с359575 0.0 101570
06:00+14с35965 0.1 1015109
09:00+19с45845 0.1 1015439
12:00+23с447025 0.4 10141161
15:00+24с45688 3.0 10131198
18:00+22ссз477742 2.1 1013436
21:00+18ссз49895 3.1 1013171
16 июня, ср
ср1600:00+16ссз411954 0.0 1013259
03:00+15ссз411955 0.0 1014240
06:00+14с411945 0.0 1014265
09:00+19с59815 0.0 1014499
12:00+23ссв576538 0.0 10151303
15:00+23с576577 0.1 10151427
18:00+24ссв58660 0.2 1015930
21:00+18ссв36830 0.2 101695
17 июня, чт
чт1700:00+16ссв412940 0.0 1017284
03:00+15ссв4109775 0.0 1018245
06:00+15ссв510965 0.0 1018249
09:00+20св69800 0.0 1019593
12:00+24св68620 0.0 10191274
15:00+25св78591 0.0 10201745
18:00+24всв69691 0.0 10201092
21:00+18всв48840 0.0 1021169
18 июня, пт
пт1800:00+16св48900 0.0 1022170
03:00+14св410960 0.0 1022214
06:00+14св410950 0.0 1022274
09:00+19всв69720 0.0 1023654
12:00+22в68624 0.0 10221075
15:00+24в68570 0.0 10221415
18:00+22в58680 0.0 10221170
21:00+18в498479 0.0 1023227